| time (UTC) | temp F | wind direction | speed MPH | gust MPH | rain 1hr in | rain 24hr in | rain mn in | humidity % | barometer mb |
| 20260507130256 | 54 | 106 | 1.0 | 1.0 | 0.00 | 0.09 | 0.09 | 68 | 1006.8 |
| 20260507125755 | 53 | 247 | 2.0 | 2.0 | 0.00 | 0.09 | 0.09 | 67 | 1006.8 |
| 20260507125252 | 53 | 357 | 5.0 | 7.0 | 0.00 | 0.09 | 0.09 | 68 | 1006.6 |
| 20260507124749 | 53 | 71 | 4.0 | 7.0 | 0.00 | 0.09 | 0.09 | 69 | 1006.8 |
| 20260507124245 | 53 | 71 | 1.0 | 2.0 | 0.00 | 0.09 | 0.09 | 71 | 1006.9 |
| 20260507123744 | 52 | 279 | 3.0 | 3.0 | 0.00 | 0.09 | 0.09 | 74 | 1006.9 |
| 20260507123241 | 52 | 348 | 4.0 | 4.0 | 0.00 | 0.09 | 0.09 | 77 | 1006.9 |
| 20260507122736 | 52 | 85 | 1.0 | 1.0 | 0.00 | 0.09 | 0.09 | 77 | 1006.8 |
| 20260507122232 | 51 | 152 | 0.0 | 0.0 | 0.00 | 0.09 | 0.09 | 80 | 1007.0 |
| 20260507121728 | 51 | 50 | 1.0 | 1.0 | 0.00 | 0.09 | 0.09 | 83 | 1007.0 |
| 20260507121224 | 50 | 92 | 0.0 | 1.0 | 0.00 | 0.09 | 0.09 | 85 | 1006.8 |
| 20260507120720 | 50 | 75 | 0.0 | 1.0 | 0.00 | 0.09 | 0.09 | 85 | 1007.0 |
| 20260507120218 | 50 | 108 | 0.0 | 0.0 | 0.00 | 0.09 | 0.09 | 87 | 1006.9 |
| 20260507115714 | 49 | 107 | 0.0 | 0.0 | 0.00 | 0.09 | 0.09 | 87 | 1006.8 |
| 20260507115209 | 49 | 103 | 0.0 | 1.0 | 0.00 | 0.09 | 0.09 | 88 | 1006.6 |
| 20260507114705 | 49 | 113 | 0.0 | 0.0 | 0.00 | 0.09 | 0.09 | 89 | 1006.6 |
| 20260507114203 | 49 | 65 | 1.0 | 1.0 | 0.00 | 0.09 | 0.09 | 90 | 1006.7 |
| 20260507113700 | 49 | 357 | 2.0 | 3.0 | 0.00 | 0.09 | 0.09 | 91 | 1006.7 |
| 20260507113157 | 49 | 98 | 0.0 | 0.0 | 0.00 | 0.09 | 0.09 | 92 | 1006.7 |
| 20260507112655 | 48 | 114 | 0.0 | 0.0 | 0.00 | 0.09 | 0.09 | 93 | 1006.8 |
| 20260507112151 | 48 | 92 | 0.0 | 1.0 | 0.00 | 0.09 | 0.09 | 94 | 1006.6 |
| 20260507111649 | 48 | 99 | 0.0 | 0.0 | 0.00 | 0.09 | 0.09 | 94 | 1006.7 |
| 20260507111145 | 48 | 100 | 0.0 | 0.0 | 0.00 | 0.09 | 0.09 | 94 | 1006.6 |
| 20260507110641 | 48 | 100 | 0.0 | 0.0 | 0.00 | 0.09 | 0.09 | 95 | 1006.6 |
| 20260507110138 | 48 | 99 | 0.0 | 1.0 | 0.00 | 0.09 | 0.09 | 95 | 1006.5 |
| 20260507105635 | 48 | 112 | 0.0 | 0.0 | 0.00 | 0.09 | 0.09 | 95 | 1006.3 |
| 20260507105131 | 48 | 123 | 0.0 | 0.0 | 0.00 | 0.09 | 0.09 | 95 | 1006.4 |
| 20260507104628 | 48 | 123 | 0.0 | 0.0 | 0.00 | 0.09 | 0.09 | 95 | 1006.5 |
| 20260507104125 | 48 | 138 | 0.0 | 0.0 | 0.00 | 0.09 | 0.09 | 95 | 1006.6 |
| 20260507103621 | 48 | 138 | 0.0 | 0.0 | 0.00 | 0.09 | 0.09 | 95 | 1006.4 |
| 20260507103118 | 48 | 138 | 0.0 | 1.0 | 0.00 | 0.09 | 0.09 | 94 | 1006.7 |
| 20260507102614 | 48 | 137 | 1.0 | 1.0 | 0.00 | 0.09 | 0.09 | 94 | 1006.7 |
| 20260507102110 | 48 | 134 | 0.0 | 0.0 | 0.00 | 0.09 | 0.09 | 94 | 1006.4 |
| 20260507101606 | 48 | 134 | 0.0 | 0.0 | 0.00 | 0.09 | 0.09 | 94 | 1006.2 |
| 20260507101102 | 48 | 134 | 0.0 | 0.0 | 0.00 | 0.09 | 0.09 | 94 | 1006.2 |
| 20260507100600 | 48 | 134 | 0.0 | 0.0 | 0.00 | 0.09 | 0.09 | 94 | 1006.0 |
| 20260507100058 | 48 | 134 | 0.0 | 0.0 | 0.00 | 0.09 | 0.09 | 94 | 1006.3 |
| 20260507095555 | 48 | 134 | 0.0 | 0.0 | 0.00 | 0.09 | 0.09 | 93 | 1006.0 |
| 20260507095052 | 48 | 134 | 0.0 | 0.0 | 0.00 | 0.09 | 0.09 | 93 | 1005.9 |
| 20260507094548 | 48 | 134 | 0.0 | 0.0 | 0.05 | 0.09 | 0.09 | 93 | 1006.2 |
| 20260507094045 | 48 | 134 | 0.0 | 0.0 | 0.05 | 0.09 | 0.09 | 93 | 1005.7 |
| 20260507093543 | 48 | 123 | 0.0 | 0.0 | 0.00 | 0.08 | 0.08 | 92 | 1005.9 |
| 20260507093042 | 48 | 122 | 0.0 | 0.0 | 0.00 | 0.08 | 0.08 | 92 | 1006.0 |
| 20260507092537 | 48 | 106 | 0.0 | 0.0 | 0.07 | 0.08 | 0.08 | 91 | 1005.7 |
| 20260507092034 | 48 | 106 | 0.0 | 0.0 | 0.07 | 0.08 | 0.08 | 91 | 1005.9 |
| 20260507091531 | 48 | 106 | 0.0 | 0.0 | 0.05 | 0.07 | 0.07 | 90 | 1006.1 |
| 20260507091027 | 49 | 105 | 0.0 | 0.0 | 0.12 | 0.07 | 0.07 | 90 | 1005.9 |
| 20260507090523 | 49 | 99 | 0.0 | 0.0 | 0.12 | 0.06 | 0.06 | 89 | 1006.2 |
| 20260507090020 | 49 | 107 | 0.0 | 0.0 | 0.12 | 0.05 | 0.05 | 89 | 1006.1 |
| 20260507085517 | 49 | 86 | 0.0 | 1.0 | 0.07 | 0.04 | 0.04 | 89 | 1006.4 |
| 20260507085014 | 49 | 104 | 0.0 | 0.0 | 0.00 | 0.03 | 0.03 | 89 | 1006.5 |
| 20260507084510 | 49 | 65 | 1.0 | 1.0 | 0.00 | 0.03 | 0.03 | 89 | 1006.4 |
| 20260507084008 | 49 | 122 | 0.0 | 0.0 | 0.05 | 0.03 | 0.03 | 89 | 1006.3 |
| 20260507083504 | 49 | 122 | 0.0 | 1.0 | 0.05 | 0.03 | 0.03 | 89 | 1006.2 |
| 20260507083001 | 49 | 122 | 0.0 | 0.0 | 0.00 | 0.02 | 0.02 | 88 | 1006.1 |
| 20260507082457 | 49 | 121 | 0.0 | 0.0 | 0.00 | 0.02 | 0.02 | 86 | 1006.0 |
| 20260507081953 | 49 | 97 | 0.0 | 0.0 | 0.00 | 0.02 | 0.02 | 85 | 1006.2 |
| 20260507081449 | 49 | 104 | 0.0 | 1.0 | 0.00 | 0.02 | 0.02 | 85 | 1006.2 |
| 20260507080946 | 49 | 102 | 0.0 | 0.0 | 0.00 | 0.02 | 0.02 | 85 | 1006.0 |
| 20260507080442 | 50 | 138 | 0.0 | 0.0 | 0.00 | 0.02 | 0.02 | 84 | 1005.9 |
| 20260507075937 | 50 | 107 | 0.0 | 0.0 | 0.00 | 0.02 | 0.02 | 84 | 1005.9 |
| 20260507075434 | 50 | 126 | 0.0 | 0.0 | 0.00 | 0.02 | 0.02 | 83 | 1006.1 |
| 20260507074931 | 50 | 124 | 0.0 | 0.0 | 0.00 | 0.02 | 0.02 | 83 | 1006.2 |
| 20260507074428 | 50 | 110 | 0.0 | 0.0 | 0.00 | 0.02 | 0.02 | 83 | 1006.1 |
| 20260507073926 | 50 | 359 | 2.0 | 2.0 | 0.07 | 0.02 | 0.02 | 81 | 1006.1 |
| 20260507073422 | 51 | 27 | 2.0 | 3.0 | 0.12 | 0.02 | 0.02 | 81 | 1006.0 |
| 20260507072919 | 52 | 332 | 3.0 | 3.0 | 0.12 | 0.02 | 0.02 | 78 | 1005.8 |
| 20260507072416 | 52 | 110 | 0.0 | 1.0 | 0.05 | 0.01 | 0.01 | 76 | 1005.9 |
| 20260507071914 | 52 | 349 | 3.0 | 4.0 | 0.00 | 0.00 | 0.00 | 74 | 1006.2 |
| 20260507071411 | 52 | 49 | 0.0 | 1.0 | 0.00 | 0.00 | 0.00 | 74 | 1005.6 |
| 20260507070907 | 52 | 50 | 0.0 | 0.0 | 0.00 | 0.00 | 0.00 | 74 | 1005.5 |
| 20260507070404 | 53 | 69 | 1.0 | 1.0 | 0.00 | 0.00 | 0.00 | 75 | 1005.2 |
| 20260507065901 | 53 | 355 | 4.0 | 6.0 | 0.00 | 0.00 | 0.00 | 75 | 1005.4 |
| 20260507065357 | 53 | 200 | 2.0 | 2.0 | 0.00 | 0.00 | 0.00 | 77 | 1005.3 |
| 20260507064855 | 53 | 6 | 1.0 | 2.0 | 0.00 | 0.00 | 0.00 | 77 | 1005.2 |
| 20260507064353 | 53 | 32 | 2.0 | 2.0 | 0.00 | 0.00 | 0.00 | 78 | 1005.3 |
| 20260507063851 | 53 | 134 | 1.0 | 1.0 | 0.00 | 0.00 | 0.00 | 79 | 1005.2 |
| 20260507063347 | 54 | 42 | 2.0 | 3.0 | 0.00 | 0.00 | 0.00 | 80 | 1005.1 |
| 20260507062844 | 54 | 82 | 0.0 | 0.0 | 0.00 | 0.00 | 0.00 | 81 | 1005.3 |
| 20260507062341 | 54 | 68 | 1.0 | 2.0 | 0.00 | 0.00 | 0.00 | 80 | 1005.3 |
| 20260507061839 | 54 | 86 | 1.0 | 1.0 | 0.00 | 0.00 | 0.00 | 80 | 1005.5 |
| 20260507061337 | 54 | 95 | 0.0 | 0.0 | 0.00 | 0.00 | 0.00 | 79 | 1005.5 |
| 20260507060835 | 54 | 308 | 2.0 | 2.0 | 0.00 | 0.00 | 0.00 | 79 | 1005.4 |
| 20260507060331 | 54 | 51 | 1.0 | 1.0 | 0.00 | 0.00 | 0.00 | 80 | 1005.1 |
| 20260507055828 | 54 | 21 | 1.0 | 1.0 | 0.00 | 0.00 | 0.00 | 80 | 1005.2 |
| 20260507055323 | 55 | 115 | 0.0 | 1.0 | 0.00 | 0.00 | 0.00 | 81 | 1005.2 |
| 20260507054820 | 55 | 36 | 2.0 | 3.0 | 0.00 | 0.00 | 0.00 | 82 | 1005.5 |
| 20260507054316 | 55 | 131 | 1.0 | 1.0 | 0.00 | 0.00 | 0.00 | 82 | 1005.4 |
| 20260507053814 | 55 | 119 | 0.0 | 0.0 | 0.00 | 0.00 | 0.00 | 82 | 1005.6 |
| 20260507053311 | 55 | 113 | 1.0 | 1.0 | 0.00 | 0.00 | 0.00 | 82 | 1005.7 |
| 20260507052810 | 55 | 97 | 0.0 | 0.0 | 0.00 | 0.00 | 0.00 | 82 | 1005.6 |
| 20260507052307 | 56 | 328 | 4.0 | 4.0 | 0.00 | 0.00 | 0.00 | 83 | 1005.9 |
| 20260507051804 | 56 | 91 | 0.0 | 0.0 | 0.00 | 0.00 | 0.00 | 85 | 1005.8 |
| 20260507051301 | 56 | 359 | 2.0 | 2.0 | 0.00 | 0.00 | 0.00 | 84 | 1005.4 |
| 20260507050758 | 56 | 60 | 1.0 | 1.0 | 0.00 | 0.00 | 0.00 | 84 | 1005.5 |
| 20260507050254 | 57 | 43 | 1.0 | 2.0 | 0.00 | 0.00 | 0.00 | 85 | 1005.4 |
| 20260507045751 | 57 | 342 | 2.0 | 3.0 | 0.00 | 0.00 | 0.00 | 87 | 1005.3 |
| 20260507045247 | 57 | 59 | 1.0 | 1.0 | 0.00 | 0.00 | 0.00 | 87 | 1005.3 |
| 20260507044745 | 57 | 87 | 1.0 | 1.0 | 0.00 | 0.00 | 0.00 | 87 | 1005.3 |
| 20260507044241 | 57 | 56 | 1.0 | 1.0 | 0.00 | 0.00 | 0.00 | 87 | 1005.5 |
| 20260507043737 | 57 | 51 | 1.0 | 1.0 | 0.00 | 0.00 | 0.00 | 87 | 1005.4 |
| 20260507043234 | 58 | 2 | 2.0 | 3.0 | 0.00 | 0.00 | 0.00 | 87 | 1005.5 |
| 20260507042731 | 58 | 95 | 1.0 | 1.0 | 0.00 | 0.00 | 0.00 | 87 | 1005.5 |
| 20260507042226 | 58 | 143 | 0.0 | 0.0 | 0.00 | 0.00 | 0.00 | 87 | 1005.4 |
| 20260507041724 | 58 | 57 | 1.0 | 2.0 | 0.00 | 0.00 | 0.00 | 86 | 1005.3 |
| 20260507041220 | 58 | 63 | 2.0 | 3.0 | 0.00 | 0.00 | 0.00 | 88 | 1005.2 |
| 20260507040717 | 59 | 168 | 1.0 | 1.0 | 0.00 | 0.00 | 0.00 | 88 | 1005.4 |
| 20260507040213 | 59 | 62 | 1.0 | 2.0 | 0.00 | 0.00 | 0.00 | 89 | 1005.6 |
| 20260507035709 | 59 | 38 | 1.0 | 1.0 | 0.00 | 0.09 | 0.09 | 89 | 1005.4 |
| 20260507035205 | 59 | 24 | 4.0 | 4.0 | 0.00 | 0.09 | 0.09 | 90 | 1005.5 |
| 20260507034702 | 59 | 84 | 1.0 | 1.0 | 0.00 | 0.09 | 0.09 | 92 | 1005.7 |
| 20260507034200 | 59 | 89 | 0.0 | 0.0 | 0.00 | 0.09 | 0.09 | 92 | 1005.5 |
| 20260507033658 | 60 | 75 | 1.0 | 1.0 | 0.00 | 0.09 | 0.09 | 92 | 1005.2 |
| 20260507033155 | 60 | 52 | 2.0 | 2.0 | 0.00 | 0.09 | 0.09 | 92 | 1005.3 |
| 20260507032652 | 59 | 80 | 1.0 | 1.0 | 0.00 | 0.09 | 0.09 | 92 | 1005.2 |
| 20260507032148 | 59 | 90 | 1.0 | 2.0 | 0.00 | 0.09 | 0.09 | 93 | 1004.9 |
| 20260507031645 | 59 | 125 | 0.0 | 0.0 | 0.00 | 0.09 | 0.09 | 92 | 1004.8 |
| 20260507031141 | 59 | 104 | 0.0 | 0.0 | 0.00 | 0.09 | 0.09 | 92 | 1004.8 |
| 20260507030638 | 59 | 38 | 2.0 | 2.0 | 0.00 | 0.09 | 0.09 | 93 | 1004.8 |
| 20260507030136 | 59 | 67 | 1.0 | 2.0 | 0.00 | 0.09 | 0.09 | 93 | 1004.8 |
| 20260507025633 | 59 | 104 | 0.0 | 0.0 | 0.00 | 0.09 | 0.09 | 92 | 1004.8 |
| 20260507025130 | 59 | 91 | 0.0 | 0.0 | 0.00 | 0.09 | 0.09 | 93 | 1004.8 |
| 20260507024628 | 59 | 86 | 1.0 | 1.0 | 0.00 | 0.09 | 0.09 | 93 | 1004.7 |
| 20260507024125 | 59 | 142 | 0.0 | 0.0 | 0.00 | 0.09 | 0.09 | 93 | 1004.5 |
| 20260507023620 | 59 | 145 | 0.0 | 0.0 | 0.00 | 0.09 | 0.09 | 93 | 1004.5 |
| 20260507023118 | 59 | 144 | 0.0 | 0.0 | 0.00 | 0.09 | 0.09 | 93 | 1004.6 |
| 20260507022615 | 59 | 104 | 0.0 | 0.0 | 0.00 | 0.09 | 0.09 | 93 | 1004.8 |
| 20260507022110 | 59 | 88 | 2.0 | 2.0 | 0.00 | 0.09 | 0.09 | 93 | 1004.8 |
| 20260507021606 | 59 | 138 | 0.0 | 0.0 | 0.00 | 0.09 | 0.09 | 93 | 1004.9 |
| 20260507021102 | 59 | 138 | 2.0 | 2.0 | 0.00 | 0.09 | 0.09 | 93 | 1004.7 |
| 20260507020601 | 59 | 146 | 0.0 | 0.0 | 0.00 | 0.09 | 0.09 | 93 | 1004.8 |
| 20260507020057 | 59 | 128 | 0.0 | 1.0 | 0.00 | 0.09 | 0.09 | 93 | 1004.6 |
| 20260507015556 | 59 | 129 | 0.0 | 0.0 | 0.00 | 0.09 | 0.09 | 93 | 1004.8 |
| 20260507015053 | 59 | 147 | 0.0 | 0.0 | 0.00 | 0.09 | 0.09 | 93 | 1004.7 |
| 20260507014549 | 59 | 171 | 1.0 | 1.0 | 0.00 | 0.09 | 0.09 | 93 | 1004.7 |
| 20260507014045 | 59 | 179 | 2.0 | 2.0 | 0.00 | 0.09 | 0.09 | 93 | 1004.9 |
| 20260507013542 | 59 | 133 | 0.0 | 0.0 | 0.00 | 0.09 | 0.09 | 93 | 1004.7 |
| 20260507013039 | 59 | 168 | 1.0 | 2.0 | 0.00 | 0.09 | 0.09 | 93 | 1004.6 |
| 20260507012536 | 59 | 137 | 0.0 | 0.0 | 0.00 | 0.09 | 0.09 | 93 | 1004.5 |
| 20260507012032 | 59 | 151 | 0.0 | 1.0 | 0.00 | 0.09 | 0.09 | 93 | 1004.7 |
| 20260507011530 | 59 | 156 | 1.0 | 1.0 | 0.00 | 0.09 | 0.09 | 93 | 1004.8 |
| 20260507011026 | 59 | 139 | 0.0 | 1.0 | 0.00 | 0.09 | 0.09 | 93 | 1004.9 |
| 20260507010520 | 59 | 172 | 1.0 | 2.0 | 0.00 | 0.09 | 0.09 | 93 | 1004.8 |
| 20260507010017 | 59 | 129 | 1.0 | 1.0 | 0.00 | 0.09 | 0.09 | 93 | 1005.0 |
| 20260507005514 | 59 | 157 | 1.0 | 1.0 | 0.00 | 0.09 | 0.09 | 93 | 1004.9 |
| 20260507005011 | 59 | 236 | 6.0 | 7.0 | 0.00 | 0.09 | 0.09 | 93 | 1004.8 |
| 20260507004508 | 59 | 70 | 2.0 | 2.0 | 0.00 | 0.09 | 0.09 | 93 | 1004.9 |
| 20260507004006 | 59 | 232 | 1.0 | 3.0 | 0.00 | 0.09 | 0.09 | 93 | 1004.9 |
| 20260507003500 | 59 | 147 | 0.0 | 0.0 | 0.00 | 0.09 | 0.09 | 93 | 1004.9 |
| 20260507002955 | 59 | 121 | 0.0 | 0.0 | 0.00 | 0.09 | 0.09 | 93 | 1004.7 |
| 20260507002453 | 59 | 156 | 1.0 | 1.0 | 0.00 | 0.09 | 0.09 | 93 | 1004.8 |
| 20260507001949 | 59 | 141 | 0.0 | 0.0 | 0.00 | 0.09 | 0.09 | 93 | 1004.9 |
| 20260507001446 | 59 | 172 | 1.0 | 2.0 | 0.00 | 0.09 | 0.09 | 93 | 1004.8 |
| 20260507000943 | 59 | 156 | 0.0 | 1.0 | 0.00 | 0.09 | 0.09 | 93 | 1004.8 |
| 20260507000439 | 59 | 207 | 2.0 | 3.0 | 0.00 | 0.09 | 0.09 | 93 | 1004.7 |
| 20260506235934 | 59 | 158 | 1.0 | 1.0 | 0.00 | 0.09 | 0.09 | 93 | 1004.6 |
| 20260506235432 | 59 | 151 | 0.0 | 0.0 | 0.00 | 0.09 | 0.09 | 93 | 1004.5 |
| 20260506234927 | 59 | 130 | 1.0 | 2.0 | 0.00 | 0.09 | 0.09 | 93 | 1004.4 |
| 20260506234425 | 59 | 137 | 0.0 | 0.0 | 0.00 | 0.09 | 0.09 | 93 | 1004.5 |
| 20260506233923 | 59 | 147 | 0.0 | 0.0 | 0.00 | 0.09 | 0.09 | 93 | 1004.5 |
| 20260506233419 | 59 | 188 | 3.0 | 6.0 | 0.00 | 0.09 | 0.09 | 93 | 1004.4 |
| 20260506232916 | 59 | 144 | 0.0 | 1.0 | 0.00 | 0.09 | 0.09 | 93 | 1004.7 |
| 20260506232412 | 59 | 118 | 0.0 | 0.0 | 0.00 | 0.09 | 0.09 | 93 | 1004.4 |
| 20260506231908 | 59 | 141 | 0.0 | 0.0 | 0.00 | 0.09 | 0.09 | 93 | 1004.2 |
| 20260506231406 | 59 | 147 | 1.0 | 1.0 | 0.00 | 0.09 | 0.09 | 93 | 1004.4 |
| 20260506230903 | 59 | 209 | 4.0 | 6.0 | 0.07 | 0.09 | 0.09 | 92 | 1004.4 |
| 20260506230359 | 59 | 205 | 2.0 | 7.0 | 0.07 | 0.09 | 0.09 | 92 | 1004.4 |
| 20260506225855 | 59 | 150 | 1.0 | 1.0 | 0.07 | 0.08 | 0.08 | 92 | 1004.5 |
| 20260506225353 | 59 | 145 | 1.0 | 2.0 | 0.07 | 0.08 | 0.08 | 92 | 1004.6 |
| 20260506224844 | 59 | 154 | 1.0 | 2.0 | 0.00 | 0.07 | 0.07 | 92 | 1004.5 |
| 20260506224342 | 59 | 142 | 1.0 | 2.0 | 0.00 | 0.07 | 0.07 | 91 | 1004.5 |
| 20260506223838 | 59 | 151 | 1.0 | 2.0 | 0.00 | 0.07 | 0.07 | 91 | 1004.4 |
| 20260506223333 | 59 | 154 | 0.0 | 0.0 | 0.00 | 0.07 | 0.07 | 92 | 1004.7 |
| 20260506222830 | 59 | 151 | 3.0 | 6.0 | 0.00 | 0.07 | 0.07 | 92 | 1004.5 |
| 20260506222325 | 59 | 122 | 0.0 | 0.0 | 0.00 | 0.07 | 0.07 | 92 | 1004.6 |
| 20260506221819 | 60 | 141 | 0.0 | 1.0 | 0.00 | 0.07 | 0.07 | 92 | 1004.6 |
| 20260506221316 | 60 | 175 | 2.0 | 2.0 | 0.00 | 0.07 | 0.07 | 91 | 1004.6 |
| 20260506220813 | 60 | 144 | 1.0 | 2.0 | 0.05 | 0.07 | 0.07 | 91 | 1004.8 |
| 20260506220313 | 60 | 144 | 1.0 | 2.0 | 0.05 | 0.07 | 0.07 | 91 | 1004.9 |
| 20260506215810 | 60 | 147 | 1.0 | 3.0 | 0.05 | 0.07 | 0.07 | 90 | 1004.8 |
| 20260506215306 | 60 | 161 | 1.0 | 1.0 | 0.00 | 0.06 | 0.06 | 90 | 1005.0 |
| 20260506214802 | 60 | 230 | 2.0 | 3.0 | 0.00 | 0.06 | 0.06 | 90 | 1004.9 |
| 20260506214259 | 60 | 147 | 0.0 | 1.0 | 0.00 | 0.06 | 0.06 | 90 | 1005.0 |
| 20260506213757 | 60 | 150 | 1.0 | 1.0 | 0.00 | 0.06 | 0.06 | 90 | 1005.0 |
| 20260506213254 | 60 | 131 | 0.0 | 0.0 | 0.00 | 0.06 | 0.06 | 90 | 1005.0 |
| 20260506212751 | 60 | 206 | 2.0 | 3.0 | 0.00 | 0.06 | 0.06 | 90 | 1005.1 |
| 20260506212247 | 60 | 137 | 0.0 | 1.0 | 0.00 | 0.06 | 0.06 | 90 | 1005.3 |
| 20260506211742 | 60 | 188 | 0.0 | 1.0 | 0.00 | 0.06 | 0.06 | 90 | 1005.1 |
| 20260506211239 | 60 | 201 | 1.0 | 2.0 | 0.00 | 0.06 | 0.06 | 89 | 1005.2 |
| 20260506210736 | 60 | 166 | 1.0 | 2.0 | 0.00 | 0.06 | 0.06 | 89 | 1005.2 |
| 20260506210233 | 60 | 141 | 1.0 | 1.0 | 0.00 | 0.06 | 0.06 | 89 | 1005.2 |
| 20260506205731 | 60 | 131 | 0.0 | 0.0 | 0.00 | 0.06 | 0.06 | 89 | 1005.3 |
| 20260506205226 | 60 | 133 | 1.0 | 1.0 | 0.00 | 0.06 | 0.06 | 89 | 1005.3 |
| 20260506204723 | 60 | 172 | 2.0 | 3.0 | 0.07 | 0.06 | 0.06 | 89 | 1005.3 |
| 20260506204220 | 60 | 152 | 1.0 | 1.0 | 0.07 | 0.06 | 0.06 | 89 | 1005.7 |
| 20260506203718 | 60 | 123 | 0.0 | 1.0 | 0.00 | 0.05 | 0.05 | 89 | 1005.7 |
| 20260506203215 | 60 | 133 | 0.0 | 0.0 | 0.00 | 0.05 | 0.05 | 88 | 1005.4 |
| 20260506202713 | 60 | 144 | 0.0 | 1.0 | 0.00 | 0.05 | 0.05 | 88 | 1005.5 |
| 20260506202209 | 60 | 210 | 4.0 | 6.0 | 0.00 | 0.05 | 0.05 | 88 | 1005.6 |
| 20260506201706 | 60 | 159 | 1.0 | 2.0 | 0.00 | 0.05 | 0.05 | 88 | 1005.6 |
| 20260506201202 | 60 | 138 | 1.0 | 1.0 | 0.00 | 0.05 | 0.05 | 88 | 1005.7 |
| 20260506200659 | 60 | 151 | 3.0 | 4.0 | 0.00 | 0.05 | 0.05 | 89 | 1005.8 |
| 20260506200156 | 60 | 170 | 1.0 | 1.0 | 0.00 | 0.05 | 0.05 | 89 | 1005.7 |
| 20260506195652 | 60 | 138 | 0.0 | 1.0 | 0.00 | 0.05 | 0.05 | 89 | 1005.5 |
| 20260506195149 | 60 | 214 | 1.0 | 3.0 | 0.00 | 0.05 | 0.05 | 89 | 1005.7 |
| 20260506194646 | 60 | 223 | 4.0 | 9.0 | 0.00 | 0.05 | 0.05 | 88 | 1005.6 |
| 20260506194142 | 60 | 202 | 3.0 | 3.0 | 0.00 | 0.05 | 0.05 | 88 | 1005.6 |
| 20260506193640 | 60 | 228 | 5.0 | 7.0 | 0.05 | 0.05 | 0.05 | 88 | 1005.9 |
| 20260506193137 | 60 | 137 | 3.0 | 4.0 | 0.12 | 0.05 | 0.05 | 87 | 1005.8 |
| 20260506192634 | 61 | 112 | 0.0 | 1.0 | 0.07 | 0.04 | 0.04 | 86 | 1005.7 |
| 20260506192130 | 61 | 152 | 1.0 | 1.0 | 0.05 | 0.03 | 0.03 | 84 | 1005.8 |
| 20260506191627 | 62 | 208 | 4.0 | 8.0 | 0.05 | 0.03 | 0.03 | 83 | 1005.7 |
| 20260506191122 | 62 | 229 | 4.0 | 4.0 | 0.07 | 0.02 | 0.02 | 84 | 1005.9 |
| 20260506190621 | 63 | 156 | 1.0 | 2.0 | 0.07 | 0.02 | 0.02 | 81 | 1005.9 |
| 20260506190117 | 63 | 147 | 0.0 | 1.0 | 0.00 | 0.01 | 0.01 | 80 | 1005.6 |
| 20260506185614 | 64 | 144 | 1.0 | 1.0 | 0.05 | 0.01 | 0.01 | 78 | 1005.7 |
| 20260506185110 | 64 | 209 | 4.0 | 8.0 | 0.05 | 0.01 | 0.01 | 76 | 1005.8 |
| 20260506184608 | 65 | 209 | 2.0 | 3.0 | 0.00 | 0.00 | 0.00 | 74 | 1005.9 |
| 20260506184106 | 66 | 156 | 1.0 | 1.0 | 0.00 | 0.00 | 0.00 | 72 | 1005.9 |
| 20260506183601 | 66 | 194 | 4.0 | 4.0 | 0.00 | 0.00 | 0.00 | 70 | 1006.0 |
| 20260506183058 | 66 | 146 | 1.0 | 1.0 | 0.00 | 0.00 | 0.00 | 69 | 1006.0 |
| 20260506182555 | 67 | 156 | 2.0 | 3.0 | 0.00 | 0.00 | 0.00 | 67 | 1006.1 |
| 20260506182052 | 68 | 143 | 1.0 | 1.0 | 0.00 | 0.00 | 0.00 | 66 | 1006.2 |
| 20260506181550 | 68 | 127 | 0.0 | 1.0 | 0.00 | 0.00 | 0.00 | 64 | 1006.2 |
| 20260506181047 | 68 | 163 | 2.0 | 3.0 | 0.00 | 0.00 | 0.00 | 62 | 1006.2 |
| 20260506180543 | 69 | 174 | 5.0 | 10.0 | 0.00 | 0.00 | 0.00 | 61 | 1006.0 |
| 20260506180040 | 69 | 194 | 2.0 | 3.0 | 0.00 | 0.00 | 0.00 | 60 | 1006.0 |
| 20260506175536 | 70 | 196 | 2.0 | 6.0 | 0.00 | 0.00 | 0.00 | 58 | 1006.1 |
| 20260506175033 | 70 | 137 | 1.0 | 2.0 | 0.00 | 0.00 | 0.00 | 58 | 1006.0 |
| 20260506174532 | 71 | 237 | 4.0 | 6.0 | 0.00 | 0.00 | 0.00 | 56 | 1006.1 |
| 20260506174027 | 71 | 185 | 2.0 | 2.0 | 0.00 | 0.00 | 0.00 | 55 | 1005.9 |
| 20260506173525 | 71 | 150 | 2.0 | 2.0 | 0.00 | 0.00 | 0.00 | 55 | 1006.1 |
| 20260506173022 | 71 | 188 | 4.0 | 4.0 | 0.00 | 0.00 | 0.00 | 54 | 1006.2 |
| 20260506172519 | 72 | 223 | 3.0 | 4.0 | 0.00 | 0.00 | 0.00 | 53 | 1006.2 |
| 20260506172015 | 72 | 209 | 7.0 | 14.0 | 0.00 | 0.00 | 0.00 | 53 | 1006.3 |
| 20260506171514 | 72 | 131 | 5.0 | 8.0 | 0.00 | 0.00 | 0.00 | 53 | 1006.2 |
| 20260506171011 | 72 | 135 | 0.0 | 1.0 | 0.00 | 0.00 | 0.00 | 54 | 1006.2 |
| 20260506170508 | 72 | 135 | 1.0 | 2.0 | 0.00 | 0.00 | 0.00 | 53 | 1006.2 |
| 20260506170005 | 72 | 120 | 2.0 | 2.0 | 0.00 | 0.00 | 0.00 | 54 | 1006.2 |
| 20260506165504 | 71 | 160 | 3.0 | 4.0 | 0.00 | 0.00 | 0.00 | 54 | 1006.3 |
| 20260506164959 | 72 | 248 | 5.0 | 7.0 | 0.00 | 0.00 | 0.00 | 54 | 1006.3 |
| 20260506164456 | 72 | 202 | 5.0 | 9.0 | 0.00 | 0.00 | 0.00 | 53 | 1006.3 |
| 20260506163954 | 72 | 144 | 1.0 | 1.0 | 0.00 | 0.00 | 0.00 | 55 | 1006.4 |
| 20260506163449 | 72 | 154 | 1.0 | 2.0 | 0.00 | 0.00 | 0.00 | 54 | 1006.4 |
| 20260506162944 | 72 | 223 | 7.0 | 11.0 | 0.00 | 0.00 | 0.00 | 53 | 1006.5 |
| 20260506162442 | 72 | 131 | 4.0 | 9.0 | 0.00 | 0.00 | 0.00 | 54 | 1006.8 |
| 20260506161939 | 72 | 214 | 2.0 | 3.0 | 0.00 | 0.00 | 0.00 | 54 | 1006.5 |
| 20260506161437 | 71 | 171 | 2.0 | 2.0 | 0.00 | 0.00 | 0.00 | 55 | 1006.8 |
| 20260506160934 | 71 | 145 | 4.0 | 4.0 | 0.00 | 0.00 | 0.00 | 55 | 1006.9 |
| 20260506160431 | 71 | 117 | 0.0 | 1.0 | 0.00 | 0.00 | 0.00 | 56 | 1007.1 |
| 20260506155929 | 71 | 181 | 4.0 | 4.0 | 0.00 | 0.00 | 0.00 | 56 | 1007.1 |
| 20260506155426 | 71 | 136 | 0.0 | 1.0 | 0.00 | 0.00 | 0.00 | 57 | 1007.1 |
| 20260506153548 | 70 | 115 | 2.0 | 2.0 | 0.00 | 0.00 | 0.00 | 59 | 1007.5 |
| 20260506153045 | 70 | 154 | 0.0 | 1.0 | 0.00 | 0.00 | 0.00 | 58 | 1007.6 |
| 20260506152542 | 70 | 146 | 1.0 | 1.0 | 0.00 | 0.00 | 0.00 | 57 | 1007.5 |
| 20260506152040 | 70 | 136 | 1.0 | 1.0 | 0.00 | 0.00 | 0.00 | 57 | 1007.8 |
| 20260506151538 | 70 | 150 | 1.0 | 2.0 | 0.00 | 0.00 | 0.00 | 57 | 1007.5 |
| 20260506151035 | 70 | 138 | 2.0 | 6.0 | 0.00 | 0.00 | 0.00 | 58 | 1007.6 |
| 20260506150531 | 71 | 144 | 2.0 | 3.0 | 0.00 | 0.00 | 0.00 | 58 | 1007.7 |
| 20260506150028 | 71 | 118 | 2.0 | 2.0 | 0.00 | 0.00 | 0.00 | 58 | 1007.7 |
| 20260506145525 | 71 | 221 | 3.0 | 6.0 | 0.00 | 0.00 | 0.00 | 57 | 1007.8 |
| 20260506145022 | 71 | 144 | 2.0 | 4.0 | 0.00 | 0.00 | 0.00 | 59 | 1007.7 |
| 20260506144519 | 70 | 147 | 1.0 | 2.0 | 0.00 | 0.00 | 0.00 | 60 | 1007.8 |
| 20260506144016 | 70 | 176 | 2.0 | 3.0 | 0.00 | 0.00 | 0.00 | 59 | 1007.6 |
| 20260506143514 | 70 | 147 | 1.0 | 2.0 | 0.00 | 0.00 | 0.00 | 61 | 1007.7 |
| 20260506143012 | 70 | 153 | 3.0 | 4.0 | 0.00 | 0.00 | 0.00 | 60 | 1007.7 |
| 20260506142509 | 69 | 127 | 1.0 | 2.0 | 0.00 | 0.00 | 0.00 | 62 | 1007.6 |
| 20260506142008 | 69 | 133 | 1.0 | 2.0 | 0.00 | 0.00 | 0.00 | 62 | 1007.8 |
| 20260506141505 | 69 | 140 | 1.0 | 2.0 | 0.00 | 0.00 | 0.00 | 62 | 1007.7 |
| 20260506141003 | 69 | 126 | 0.0 | 1.0 | 0.00 | 0.00 | 0.00 | 63 | 1007.8 |
| 20260506140500 | 69 | 112 | 3.0 | 4.0 | 0.00 | 0.00 | 0.00 | 65 | 1007.7 |
| 20260506135957 | 68 | 172 | 1.0 | 2.0 | 0.00 | 0.00 | 0.00 | 64 | 1007.8 |
| 20260506135454 | 68 | 141 | 1.0 | 2.0 | 0.00 | 0.00 | 0.00 | 66 | 1007.6 |
| 20260506134950 | 67 | 132 | 0.0 | 0.0 | 0.00 | 0.00 | 0.00 | 68 | 1008.0 |
| 20260506134446 | 67 | 131 | 2.0 | 2.0 | 0.00 | 0.00 | 0.00 | 65 | 1007.7 |
| 20260506133943 | 66 | 155 | 1.0 | 2.0 | 0.00 | 0.00 | 0.00 | 68 | 1008.0 |
| 20260506133440 | 67 | 217 | 7.0 | 11.0 | 0.00 | 0.00 | 0.00 | 66 | 1007.8 |
| 20260506132937 | 66 | 213 | 1.0 | 3.0 | 0.00 | 0.00 | 0.00 | 69 | 1008.1 |
| 20260506132434 | 66 | 160 | 1.0 | 1.0 | 0.00 | 0.00 | 0.00 | 69 | 1008.4 |
| 20260506131931 | 66 | 219 | 5.0 | 6.0 | 0.00 | 0.00 | 0.00 | 67 | 1008.4 |
| 20260506131428 | 66 | 205 | 1.0 | 3.0 | 0.00 | 0.00 | 0.00 | 69 | 1008.5 |
| 20260506130925 | 66 | 143 | 2.0 | 2.0 | 0.00 | 0.00 | 0.00 | 69 | 1008.3 |